Preview of NWS' New Version of Forecast
This preview is not operational and should not be used for support decisions.

Regional Weather Roundup (RWR)

Issued by National Weather Service (NWS)

                            
000
ASUS43 KLSX 181607
RWRMO 

WEATHER SUMMARY FOR MISSOURI
NATIONAL WEATHER SERVICE SPRINGFIELD MO
1100 AM CDT MON MAR 18 2019

NOTE: "FAIR" INDICATES FEW OR NO CLOUDS BELOW 12,000 FEET WITH NO
       SIGNIFICANT WEATHER AND/OR OBSTRUCTIONS TO VISIBILITY.
       CURRENT SKY AND/OR WEATHER CONDITIONS ARE NOT AVAILABLE FOR
       CHILLICOTHE AND FARMINGTON.

MOZ001>031-035>038-043-044-053-054-181700-
...NORTHERN AND WESTERN MISSOURI...
  
CITY           SKY/WX    TMP DP  RH WIND       PRES   REMARKS
KANSAS CTY INT MOSUNNY   45  27  49 E6        30.47R                  
KANSAS C DTWN  SUNNY     47  26  44 E8        30.47R                  
LEE'S SUMMIT   SUNNY     46  29  51 NE8       30.46S                  
ST JOSEPH      SUNNY     43  29  57 VRB5      30.48S                  
CHILLICOTHE      N/A     42  32  67 MISG      30.49R                  
KIRKSVILLE     SUNNY     42  31  64 W9        30.46R                  
     
$$
MOZ066>068-077>081-088>096-101>105-181700-
...SOUTHWEST MISSOURI...
  
CITY           SKY/WX    TMP DP  RH WIND       PRES   REMARKS
SPRINGFIELD    SUNNY     49  27  42 SE9       30.41S                  
JOPLIN         SUNNY     51  29  42 E10       30.42R                  
BRANSON        MOSUNNY   48  25  40 E9        30.43R                  
               
$$
MOZ032>034-039>042-045>050-055>058-069>072-181700-
...CENTRAL MISSOURI...  
  
CITY           SKY/WX    TMP DP  RH WIND       PRES   REMARKS
COLUMBIA       SUNNY     45  28  51 NW6       30.46R                  
JEFFERSON CITY SUNNY     47  26  44 NE5       30.46R                  
ROLLA          SUNNY     46  27  47 N9        30.44R                  
SEDALIA        SUNNY     45  26  47 NE8       30.47R                  
WHITEMAN AFB   SUNNY     46  24  41 NE8       30.45S                  
WARRENSBURG    SUNNY     45  28  53 NE9       30.47S                  
OSAGE BEACH    SUNNY     48  28  46 N6        30.45S                  
               
$$
MOZ051-052-059>065-181700-
...EAST CENTRAL MISSOURI...
  
CITY           SKY/WX    TMP DP  RH WIND       PRES   REMARKS
ST LOUIS INTL  MOSUNNY   44  29  55 NW5       30.46R                  
SPIRIT OF STL  SUNNY     45  31  58 N5        30.46R                  
ST CHARLES     SUNNY     43  30  60 CALM      30.47R                  
                   
$$
MOZ072>076-082>087-097>100-106>115-181700-
...SOUTH CENTRAL AND SOUTHEAST MISSOURI...
  
CITY           SKY/WX    TMP DP  RH WIND       PRES   REMARKS
CAPE GIRARDEAU FAIR      50  25  37 MISG      30.45R                  
FARMINGTON     SUNNY     46  26  45 SW5       30.44R                  
POPLAR BLUFF   FAIR      49  29  46 VRB3      30.45R                  
WEST PLAINS    SUNNY     49  27  42 CALM      30.42S                  
                                       
$$